Weather History for KMSY - April, 2014

Change the Weather History Date:

Sunday, April 13, 2014

  Actual Average Record
Temperature  
Mean Temperature 74 °F -  
Max Temperature 82 °F 78 °F 87 °F (2001)
Min Temperature 66 °F 59 °F 44 °F (1961)
Cooling Degree Days 9    
Growing Degree Days 24 (Base 50)    
Moisture  
Dew Point 65 °F    
Average Humidity 75    
Maximum Humidity 93    
Minimum Humidity 45    
Precipitation  
Precipitation 0.00 in - - ()
Sea Level Pressure  
Sea Level Pressure 29.99 in    
Wind  
Wind Speed 11 mph (SSE)    
Max Wind Speed 22 mph    
Max Gust Speed 30 mph    
Visibility 10 miles    
Events      
Averages and records for this station are not official NWS values.
T = Trace of Precipitation, MM = Missing Value Source: NWS Daily Summary

Daily Weather History Graph

Daily Weather History Graph

Search for Another Location

Airport or City:

Trip Planner

Search our weather history database for the weather conditions in past years. The results will help you decide how hot, cold, wet, or windy it might be!

Date:

Astronomy

Apr. 13, 2014 Rise Set
Actual Time 6:36 AM CDT 7:27 PM CDT
Civil Twilight 6:11 AM CDT 7:51 PM CDT
Nautical Twilight 5:43 AM CDT 8:20 PM CDT
Astronomical Twilight 5:13 AM CDT 8:50 PM CDT
Moon 6:10 PM CDT (4/13) 5:27 AM CDT (4/13)
Length of Visible Light 13h 39m
Length of Day
12h 50m
Waxing Gibbous, 97% of the Moon is Illuminated
Apr 13
Waxing Gibbous
Apr 15
Full
Apr 22
Last Quarter
Apr 29
New
May 6
First Quarter

Hourly Weather History & Observations

Time (CDT) Temp. Heat Index Dew Point Humidity Pressure Visibility Wind Dir Wind Speed Gust Speed Precip Events Conditions
12:53 AM 66.9 °F - 62.1 °F 84% 30.04 in 10.0 mi SSE 6.9 mph - N/A   Mostly Cloudy
1:17 AM 68.0 °F - 63.0 °F 84% 30.03 in 10.0 mi SE 8.1 mph - N/A   Mostly Cloudy
1:33 AM 66.9 °F - 63.0 °F 87% 30.02 in 10.0 mi SE 9.2 mph - N/A   Mostly Cloudy
1:53 AM 66.9 °F - 63.0 °F 87% 30.02 in 10.0 mi SE 8.1 mph - N/A   Mostly Cloudy
2:53 AM 68.0 °F - 62.1 °F 81% 30.01 in 10.0 mi SSE 6.9 mph - N/A   Mostly Cloudy
3:53 AM 66.9 °F - 62.1 °F 84% 30.01 in 10.0 mi SSE 5.8 mph - N/A   Mostly Cloudy
4:53 AM 66.9 °F - 63.0 °F 87% 29.99 in 10.0 mi SE 6.9 mph - N/A   Mostly Cloudy
5:53 AM 66.9 °F - 64.9 °F 93% 29.99 in 10.0 mi SE 8.1 mph - N/A   Scattered Clouds
6:53 AM 66.9 °F - 64.9 °F 93% 30.01 in 8.0 mi SSE 8.1 mph - N/A   Scattered Clouds
7:53 AM 70.0 °F - 66.0 °F 87% 30.03 in 10.0 mi SSE 10.4 mph - N/A   Partly Cloudy
8:53 AM 73.9 °F - 68.0 °F 82% 30.03 in 10.0 mi SSE 10.4 mph - N/A   Scattered Clouds
9:53 AM 77.0 °F - 66.9 °F 71% 30.04 in 10.0 mi SSE 18.4 mph 26.5 mph N/A   Mostly Cloudy
10:53 AM 77.0 °F - 66.0 °F 69% 30.06 in 10.0 mi South 20.7 mph 28.8 mph N/A   Mostly Cloudy
11:53 AM 80.1 °F 81.9 °F 64.9 °F 60% 30.04 in 10.0 mi SSE 21.9 mph 29.9 mph N/A   Mostly Cloudy
12:53 PM 82.0 °F 83.4 °F 64.0 °F 54% 30.02 in 10.0 mi SSE 20.7 mph 29.9 mph N/A   Mostly Cloudy
1:53 PM 81.0 °F 81.9 °F 62.1 °F 52% 30.01 in 10.0 mi South 17.3 mph 24.2 mph N/A   Mostly Cloudy
2:53 PM 81.0 °F 82.2 °F 63.0 °F 54% 29.98 in 10.0 mi SSE 20.7 mph 27.6 mph N/A   Mostly Cloudy
3:53 PM 81.0 °F 82.5 °F 64.0 °F 56% 29.96 in 10.0 mi South 15.0 mph 25.3 mph N/A   Mostly Cloudy
4:53 PM 79.0 °F - 63.0 °F 58% 29.94 in 10.0 mi South 18.4 mph 27.6 mph N/A   Mostly Cloudy
5:53 PM 78.1 °F - 63.0 °F 60% 29.92 in 10.0 mi SSE 15.0 mph - N/A   Scattered Clouds
6:53 PM 75.2 °F - 64.4 °F 69% 29.93 in 10.0 mi SSE 10.4 mph - N/A   Mostly Cloudy
7:53 PM 73.9 °F - 64.9 °F 73% 29.92 in 10.0 mi SSE 9.2 mph - N/A   Mostly Cloudy
8:53 PM 73.0 °F - 68.0 °F 84% 29.93 in 10.0 mi ESE 9.2 mph - N/A   Mostly Cloudy
9:53 PM 72.0 °F - 68.0 °F 87% 29.93 in 10.0 mi SE 11.5 mph - N/A   Scattered Clouds
10:53 PM 72.0 °F - 68.0 °F 87% 29.93 in 10.0 mi SE 13.8 mph - N/A   Mostly Cloudy
11:53 PM 72.0 °F - 68.0 °F 87% 29.91 in 10.0 mi SSE 12.7 mph - N/A   Mostly Cloudy